Location: Newark
(34.9471°N, 136.1778°E)
Time: 06:22:15
(UTC+00:00)

XW-2C - Pass Details

Date: 26 February 2020
Orbit: 509 x 527 km, 97.5° (Epoch: 07 April)

Event Time Altitude Azimuth Distance (km) Brightness Sun altitude
Rises 20:06:03 0° 27° (NNE) 2,642 ? -17.7°
Reaches altitude 10° 20:08:30 10° 43° (NE) 1,754 ? -17.2°
Maximum altitude 20:11:31 23° 96° (E) 1,155 ? -16.6°
Drops below altitude 10° 20:14:32 10° 149° (SSE) 1,751 ? -15.9°
Sets 20:16:57 0° 164° (SSE) 2,637 ? -15.4°
